Temp
63 63 63 64 62 61 61 61 61 61 61 61 61 61 61 61 61 61 61 61 60 60 60 61 61 62 56 54 65 79 80 79 77 77 76 75 71 70 65 70 71 67 66 67 69 69 68
63 63 63 63 62 62 61 61 61 61 61 61 60 60 60 60 60 61 61 60 60 60 60 61 62 62 53 54 79 79 76 75 75 74 73 75 74 75 69 72 71 70 67 67 68 68 69
63 63 62 62 62 61 60 60 60 60 60 60 60 60 60 60 60 60 60 59 59 59 60 61 62 62 55 65 79 78 76 72 68 73 71 76 78 72 71 68 72 69 63 65 65 66 65
62 62 62 62 62 60 60 60 60 60 60 60 60 60 60 60 60 59 58 58 58 60 61 61 62 56 55 75 75 76 74 72 72 68 74 78 78 71 68 72 69 65 62 58 62 64 67
62 61 61 62 61 61 60 60 59 59 59 59 59 59 59 59 59 58 56 56 59 60 63 62 53 53 61 77 73 76 77 74 69 71 74 87 75 68 68 61 56 60 53 54 58 62 64
62 61 61 62 61 61 61 60 60 60 59 59 59 59 58 58 57 56 55 57 62 60 62 64 66 56 67 74 75 77 76 80 73 72 73 71 65 59 58 55 49 53 53 56 55 60 61
62 61 62 62 62 61 60 60 60 59 59 59 59 58 58 57 56 55 52 53 60 58 56 61 62 67 73 78 80 76 80 76 73 69 59 64 58 53 59 61 64 62 59 56 58 62 60
62 61 61 61 60 60 59 59 59 59 59 58 58 58 58 56 56 55 52 59 62 63 59 66 69 69 74 74 71 75 80 69 66 60 61 58 53 63 67 66 65 60 58 55 59 62 59
61 61 61 60 59 59 59 58 58 58 58 58 58 57 57 56 55 51 53 61 67 64 55 67 69 69 71 73 71 69 76 71 64 60 58 55 62 69 68 64 61 60 59 56 56 59 60
60 59 59 59 59 59 58 58 58 58 58 58 57 57 57 55 55 54 61 64 67 66 50 62 64 73 73 72 67 81 78 73 66 63 61 58 68 68 63 61 61 55 64 62 57 55 49
59 59 59 59 59 58 58 58 58 58 57 57 57 57 55 55 49 59 68 62 62 66 41 68 66 78 70 67 67 73 78 72 64 63 61 60 62 62 61 63 64 58 66 61 59 54 52
59 59 59 59 59 58 58 58 58 57 57 57 57 56 55 51 47 57 62 63 67 52 44 62 69 66 63 65 68 71 72 74 72 65 61 64 71 68 65 69 68 68 61 59 58 52 45
59 59 59 59 58 58 58 58 58 57 57 56 55 54 52 58 65 62 65 65 51 45 62 62 60 61 59 62 65 65 65 60 58 51 50 60 62 65 69 60 64 61 54 44 44 45 45
59 59 58 58 58 58 58 58 57 57 56 55 53 51 52 58 56 64 64 58 46 58 56 64 61 61 59 64 64 65 60 57 62 60 53 50 50 62 70 61 56 57 54 46 41 44 48
59 59 58 58 58 58 58 58 57 57 56 55 52 51 52 60 58 60 60 47 49 55 64 62 61 55 55 60 59 62 58 56 61 60 53 49 53 68 70 67 66 57 50 58 53 47 47
59 59 58 58 58 58 58 58 57 56 55 54 53 57 61 66 66 64 55 47 52 65 66 63 51 55 49 56 58 58 55 63 63 66 61 54 49 60 68 69 67 60 63 50 49 42 41
59 58 58 58 58 58 58 58 57 56 55 54 57 61 69 66 68 58 50 50 61 68 69 61 56 56 54 55 54 53 58 65 68 68 64 53 50 55 60 56 57 56 53 51 51 48 44
58 58 58 58 58 58 58 58 56 55 53 53 54 57 69 68 59 47 49 57 64 64 67 65 63 58 56 57 54 55 58 65 72 64 60 56 49 46 53 63 63 63 53 52 49 48 46
58 58 58 58 58 58 58 57 56 54 53 48 50 52 66 68 52 51 55 63 66 63 60 62 62 62 58 53 50 56 59 70 72 65 57 58 49 42 47 55 61 57 56 48 48 46 45
58 59 59 58 58 58 58 57 56 55 54 49 53 54 59 59 55 53 53 59 60 70 67 65 60 61 57 55 53 53 58 67 70 70 69 62 49 48 44 48 53 55 59 56 49 45 45
59 58 59 58 58 58 58 57 56 55 54 51 52 53 55 51 55 55 52 60 62 59 64 61 58 59 55 47 50 53 57 60 66 66 64 58 49 47 56 55 58 59 57 58 52 48 47
59 58 58 59 58 58 58 58 57 55 54 52 52 54 55 53 53 53 51 52 60 60 60 57 58 60 56 51 53 49 52 50 51 59 54 53 47 50 54 61 62 56 58 58 57 55 54
59 59 59 59 59 58 58 58 57 55 53 49 52 55 55 51 53 51 52 57 63 64 62 67 64 59 56 60 61 56 54 50 48 48 50 48 47 45 43 53 59 50 53 55 54 56 54
59 58 58 59 59 58 58 58 58 56 53 47 48 50 50 51 55 57 61 64 65 63 61 64 64 58 64 64 61 57 53 52 55 50 47 47 44 41 42 47 42 51 56 61 56 57 56
59 58 58 58 59 58 58 58 58 57 56 47 47 50 50 49 56 61 63 63 62 60 61 64 65 66 62 58 51 46 46 49 51 51 48 46 43 40 39 36 45 52 55 54 51 54 57
58 58 58 58 58 58 58 58 58 57 56 48 47 52 52 51 54 64 63 61 56 55 58 62 64 63 60 50 48 39 39 41 43 48 44 47 44 43 38 38 38 47 55 59 56 48 59
58 58 58 57 58 58 58 59 59 58 57 51 50 54 54 52 57 60 60 58 60 56 55 55 60 59 57 46 43 40 40 45 40 39 40 40 40 39 39 37 44 55 58 60 46 46 57
57 57 57 57 57 57 58 58 58 59 58 52 51 55 55 51 55 64 69 61 62 58 54 58 57 56 50 45 44 42 40 42 40 43 41 41 39 37 38 36 38 56 57 52 52 55 58
57 57 57 56 57 57 58 58 58 58 58 55 47 57 58 52 56 64 71 73 72 69 59 53 56 52 52 44 42 42 42 40 40 39 44 40 45 42 43 42 50 52 53 55 55 55 56
MSLP
1020.34 1020.00 1019.69 1019.39 1019.26 1019.05 1018.70 1018.35 1018.02 1017.71 1017.39 1017.18 1016.91 1016.54 1016.29 1016.04 1015.70 1015.38 1015.11 1014.95 1014.75 1014.54 1014.35 1014.15 1013.99 1013.73 1013.34 1012.40 1009.70 1007.72 1007.38 1008.08 1008.53 1008.85 1008.91 1009.01 1009.44 1009.68 1009.99 1009.92 1010.20 1010.73 1011.55 1012.36 1012.54 1012.49 1012.37
1020.57 1020.24 1019.84 1019.54 1019.25 1019.02 1018.69 1018.33 1018.01 1017.72 1017.42 1017.18 1016.84 1016.51 1016.22 1015.91 1015.56 1015.18 1014.90 1014.70 1014.52 1014.33 1014.20 1014.03 1013.87 1013.70 1013.26 1011.15 1008.06 1007.97 1008.06 1008.54 1008.67 1008.86 1009.01 1009.16 1009.26 1009.38 1009.70 1009.80 1010.05 1010.55 1011.74 1012.21 1012.67 1012.85 1012.48
1020.70 1020.31 1019.94 1019.61 1019.32 1019.04 1018.77 1018.40 1018.07 1017.70 1017.36 1017.07 1016.74 1016.43 1016.14 1015.76 1015.33 1014.94 1014.67 1014.50 1014.24 1014.12 1014.12 1013.99 1013.83 1013.62 1012.76 1009.61 1008.10 1008.11 1008.36 1008.69 1008.72 1008.76 1009.09 1009.10 1009.02 1009.40 1009.61 1009.72 1010.56 1011.01 1012.17 1012.74 1013.06 1013.22 1012.83
1020.80 1020.48 1020.15 1019.79 1019.49 1019.17 1018.85 1018.49 1018.15 1017.69 1017.33 1016.99 1016.63 1016.30 1016.02 1015.58 1015.15 1014.78 1014.41 1014.12 1013.88 1013.74 1013.72 1013.76 1013.71 1013.55 1011.56 1008.59 1008.20 1008.41 1008.42 1008.49 1008.59 1008.98 1009.13 1008.99 1009.04 1009.44 1009.54 1009.84 1010.76 1011.52 1012.46 1012.85 1013.43 1013.68 1013.10
1021.01 1020.70 1020.27 1019.91 1019.56 1019.22 1018.84 1018.46 1018.11 1017.69 1017.31 1016.91 1016.52 1016.13 1015.83 1015.40 1014.94 1014.53 1014.10 1013.65 1013.29 1013.34 1013.43 1013.60 1013.70 1013.06 1010.11 1008.14 1008.12 1007.46 1007.91 1008.22 1008.61 1009.06 1009.06 1008.75 1009.10 1009.52 1009.66 1010.39 1011.32 1012.17 1013.36 1013.62 1014.25 1013.88 1013.49
1021.24 1020.90 1020.48 1020.09 1019.66 1019.27 1018.88 1018.50 1018.08 1017.56 1017.12 1016.72 1016.33 1015.92 1015.54 1015.18 1014.76 1014.43 1013.91 1013.13 1012.90 1013.25 1013.39 1013.36 1012.98 1012.58 1009.46 1007.97 1007.29 1007.17 1007.63 1007.91 1008.32 1008.64 1008.86 1008.92 1009.35 1009.89 1010.51 1010.96 1011.56 1012.17 1013.47 1014.27 1014.16 1014.23 1013.53
1021.36 1021.02 1020.64 1020.21 1019.79 1019.36 1018.86 1018.50 1018.06 1017.52 1017.06 1016.56 1016.10 1015.69 1015.34 1015.03 1014.71 1014.46 1013.88 1013.40 1013.32 1013.09 1012.81 1011.70 1011.08 1010.36 1008.66 1007.42 1006.80 1007.01 1007.30 1007.96 1008.16 1008.62 1009.12 1009.36 1009.91 1010.21 1010.47 1010.67 1010.98 1011.74 1012.96 1013.86 1014.53 1014.22 1013.77
1021.58 1021.21 1020.69 1020.24 1019.93 1019.46 1018.95 1018.53 1018.07 1017.50 1016.86 1016.39 1015.92 1015.51 1015.13 1014.79 1014.53 1014.38 1014.36 1013.44 1012.36 1012.07 1011.52 1010.03 1009.86 1009.38 1008.18 1007.72 1007.32 1006.96 1007.05 1007.90 1008.41 1009.02 1009.30 1009.80 1009.83 1009.82 1010.14 1010.42 1010.99 1011.79 1012.48 1013.86 1014.31 1014.09 1014.65
1021.78 1021.28 1020.82 1020.34 1019.96 1019.48 1019.00 1018.53 1018.01 1017.38 1016.75 1016.24 1015.75 1015.30 1014.86 1014.53 1014.26 1014.20 1013.79 1012.48 1011.36 1011.39 1011.45 1009.46 1008.57 1007.96 1007.27 1007.39 1007.10 1006.89 1007.10 1007.60 1008.25 1008.98 1009.54 1009.93 1009.68 1009.26 1009.96 1010.54 1011.04 1011.74 1011.92 1012.62 1013.50 1014.47 1014.70
1022.04 1021.61 1021.09 1020.58 1020.06 1019.54 1019.06 1018.56 1017.97 1017.25 1016.60 1016.05 1015.51 1015.09 1014.61 1014.21 1014.30 1013.82 1012.73 1011.27 1011.09 1011.10 1011.20 1009.30 1007.95 1006.71 1006.63 1006.70 1006.80 1006.46 1006.83 1007.38 1008.12 1008.77 1009.52 1009.85 1009.14 1009.54 1010.11 1010.48 1010.75 1011.50 1011.75 1012.30 1013.10 1014.06 1014.72
1022.24 1021.75 1021.23 1020.72 1020.17 1019.64 1019.08 1018.48 1017.84 1017.06 1016.33 1015.77 1015.26 1014.92 1014.59 1014.46 1014.32 1013.36 1011.80 1011.08 1010.86 1010.88 1010.66 1008.50 1007.18 1006.04 1006.51 1006.94 1006.83 1006.51 1006.57 1007.16 1008.00 1008.66 1009.42 1009.40 1009.12 1009.36 1009.79 1009.31 1010.14 1011.20 1011.71 1012.81 1013.47 1013.88 1014.68
1022.36 1021.86 1021.28 1020.78 1020.25 1019.64 1019.04 1018.30 1017.60 1016.75 1015.92 1015.32 1014.89 1014.72 1014.49 1014.44 1014.37 1012.19 1011.19 1010.67 1010.68 1011.16 1009.91 1008.37 1007.16 1006.67 1006.99 1006.85 1006.91 1006.73 1006.93 1007.28 1007.66 1008.44 1009.04 1008.93 1008.19 1008.46 1008.46 1008.82 1009.95 1011.31 1012.20 1013.09 1013.20 1014.12 1014.51
1022.46 1021.91 1021.35 1020.82 1020.27 1019.68 1019.01 1018.22 1017.44 1016.49 1015.54 1014.75 1014.32 1014.26 1014.35 1013.68 1012.50 1011.46 1010.83 1010.93 1011.43 1011.05 1009.96 1008.73 1007.82 1007.45 1007.46 1007.41 1007.23 1007.14 1007.52 1007.89 1008.41 1008.96 1009.47 1008.72 1008.39 1008.46 1008.36 1009.60 1010.69 1011.10 1012.15 1013.12 1013.96 1014.39 1013.95
1022.52 1021.97 1021.39 1020.83 1020.23 1019.63 1018.92 1018.08 1017.28 1016.23 1015.26 1014.21 1013.53 1013.46 1013.23 1012.27 1011.60 1011.31 1011.48 1011.68 1011.63 1010.73 1009.82 1008.82 1008.38 1008.12 1008.23 1008.27 1007.83 1007.73 1008.12 1008.48 1008.53 1008.97 1009.54 1009.42 1009.21 1008.36 1008.19 1008.58 1009.26 1010.68 1011.14 1011.91 1013.71 1013.98 1013.42
1022.56 1022.08 1021.45 1020.84 1020.19 1019.48 1018.80 1017.94 1017.11 1016.05 1014.97 1013.92 1013.03 1013.13 1013.08 1011.28 1011.32 1011.75 1012.24 1012.44 1011.77 1010.44 1009.47 1009.06 1008.75 1009.09 1009.32 1008.82 1008.55 1008.38 1008.56 1008.68 1008.49 1008.70 1009.24 1009.36 1008.71 1007.82 1007.88 1008.24 1008.80 1010.44 1010.91 1010.96 1011.98 1013.12 1013.10
1022.60 1022.09 1021.55 1020.90 1020.25 1019.49 1018.75 1017.97 1017.11 1016.02 1014.69 1013.94 1013.36 1013.20 1012.19 1010.76 1010.78 1011.54 1012.58 1012.74 1011.44 1009.83 1009.02 1009.04 1009.43 1009.65 1009.81 1009.57 1009.32 1009.11 1009.00 1008.74 1008.54 1008.51 1008.60 1009.27 1009.37 1008.60 1008.08 1008.42 1008.81 1009.09 1009.69 1010.89 1011.78 1012.90 1012.84
1022.53 1022.05 1021.62 1020.98 1020.31 1019.57 1018.84 1018.08 1017.29 1016.23 1014.59 1013.49 1013.54 1013.16 1011.29 1010.76 1010.69 1012.40 1013.07 1012.39 1010.81 1009.44 1008.69 1009.08 1009.40 1009.82 1010.09 1010.10 1009.99 1009.90 1009.56 1008.92 1008.38 1008.37 1008.56 1009.24 1009.74 1009.52 1008.85 1008.74 1008.78 1009.55 1009.70 1010.44 1011.30 1011.98 1012.14
1022.43 1022.02 1021.60 1021.04 1020.38 1019.68 1018.94 1018.21 1017.37 1016.76 1015.23 1013.88 1014.24 1013.66 1011.40 1011.26 1012.06 1013.10 1012.92 1011.55 1010.06 1009.40 1008.96 1009.14 1009.42 1009.91 1010.33 1010.54 1010.58 1010.42 1009.96 1009.10 1008.60 1008.84 1009.08 1009.48 1010.23 1010.41 1009.85 1008.86 1008.96 1008.96 1009.78 1010.34 1011.24 1011.98 1011.93
1022.34 1021.98 1021.56 1021.09 1020.47 1019.81 1019.13 1018.41 1017.59 1017.02 1016.62 1016.62 1015.83 1014.31 1011.74 1011.44 1012.59 1013.14 1012.12 1011.00 1009.88 1009.30 1009.26 1009.37 1010.00 1010.25 1010.71 1011.26 1011.39 1010.91 1010.34 1009.30 1008.98 1009.11 1009.42 1009.70 1010.85 1011.14 1010.80 1010.27 1009.58 1009.75 1009.74 1010.05 1010.51 1011.28 1011.94
1022.32 1021.90 1021.45 1021.03 1020.55 1019.96 1019.32 1018.64 1017.91 1017.28 1016.78 1016.77 1016.16 1015.07 1013.24 1012.64 1012.98 1012.88 1012.12 1010.79 1009.84 1009.18 1009.55 1009.85 1010.42 1010.56 1011.05 1011.65 1011.80 1011.73 1011.04 1010.10 1009.80 1009.70 1009.82 1009.98 1011.53 1011.90 1011.97 1011.80 1011.31 1010.64 1010.22 1010.14 1010.59 1011.79 1012.37
1022.11 1021.82 1021.39 1021.01 1020.60 1020.03 1019.47 1018.84 1018.11 1017.42 1016.80 1016.74 1016.33 1015.74 1014.81 1014.16 1013.45 1012.93 1012.10 1010.78 1010.04 1009.83 1009.90 1010.26 1010.84 1011.13 1011.46 1012.19 1012.29 1012.35 1011.91 1011.34 1010.65 1010.72 1010.78 1011.28 1012.35 1012.24 1011.62 1011.74 1011.22 1010.96 1010.62 1010.78 1011.23 1011.96 1012.30
1021.80 1021.56 1021.30 1020.91 1020.53 1020.12 1019.62 1019.08 1018.38 1017.54 1016.91 1016.82 1016.72 1016.07 1015.16 1014.58 1013.85 1013.18 1012.22 1011.10 1010.27 1010.08 1010.11 1010.53 1011.00 1011.32 1011.42 1011.92 1012.25 1012.60 1012.61 1012.61 1012.53 1012.05 1012.33 1012.72 1013.26 1013.10 1012.37 1011.46 1011.53 1011.70 1011.50 1011.42 1012.12 1012.59 1013.04
1021.50 1021.21 1020.99 1020.75 1020.41 1020.07 1019.66 1019.22 1018.66 1018.03 1017.10 1017.51 1016.94 1016.26 1015.82 1014.96 1014.21 1013.41 1012.61 1011.49 1010.39 1009.91 1010.25 1010.16 1010.66 1011.16 1011.49 1011.57 1011.87 1012.50 1012.96 1013.48 1013.48 1013.62 1013.93 1014.18 1014.38 1014.59 1014.00 1012.98 1012.64 1012.80 1012.84 1012.70 1013.04 1013.25 1013.29
1021.14 1020.90 1020.60 1020.36 1020.24 1019.95 1019.62 1019.29 1018.87 1018.56 1018.52 1018.82 1018.06 1017.46 1016.75 1015.58 1014.37 1013.20 1012.04 1011.04 1010.52 1010.16 1010.20 1010.29 1010.44 1010.86 1010.99 1011.34 1012.58 1013.50 1013.99 1014.24 1014.14 1014.66 1014.69 1015.18 1015.57 1015.71 1015.37 1014.05 1013.84 1013.64 1013.67 1013.49 1013.72 1014.11 1013.90
1020.68 1020.44 1020.24 1020.04 1019.88 1019.73 1019.48 1019.23 1018.89 1018.62 1018.54 1018.76 1018.13 1017.83 1017.17 1015.97 1014.39 1012.96 1012.02 1011.06 1010.82 1010.62 1010.61 1010.44 1010.40 1010.70 1011.10 1011.94 1013.44 1014.94 1015.39 1015.17 1015.40 1015.60 1015.72 1015.89 1016.15 1016.63 1016.47 1015.92 1015.22 1014.55 1014.36 1014.41 1014.88 1014.40 1014.33
1020.29 1019.99 1019.80 1019.68 1019.58 1019.36 1019.21 1019.03 1018.74 1018.51 1018.31 1018.34 1017.88 1017.36 1017.08 1016.36 1014.12 1012.92 1011.93 1011.47 1011.48 1011.33 1011.30 1010.83 1010.61 1010.77 1011.70 1013.47 1014.89 1016.29 1016.82 1016.86 1016.72 1016.31 1016.09 1016.36 1016.61 1016.80 1017.10 1016.58 1015.78 1014.65 1014.42 1014.72 1014.87 1015.11 1014.60
1019.76 1019.52 1019.35 1019.28 1019.18 1019.06 1018.91 1018.72 1018.45 1018.25 1018.07 1018.20 1017.59 1016.99 1016.72 1016.21 1013.84 1012.68 1011.77 1011.47 1011.33 1011.45 1011.80 1011.78 1011.62 1011.78 1012.49 1014.65 1016.36 1017.44 1017.69 1017.63 1017.44 1017.08 1017.02 1017.34 1017.75 1017.64 1017.26 1016.54 1015.48 1014.26 1014.06 1014.49 1014.98 1015.15 1014.43
1019.20 1019.03 1018.87 1018.85 1018.78 1018.66 1018.56 1018.37 1018.17 1018.02 1017.84 1017.91 1017.07 1016.60 1016.63 1016.07 1013.92 1012.50 1011.63 1011.40 1011.13 1011.31 1011.93 1012.26 1012.77 1013.03 1014.11 1015.60 1016.84 1017.72 1017.93 1017.94 1017.94 1017.40 1017.32 1017.78 1018.12 1018.07 1017.84 1017.14 1015.89 1014.68 1014.29 1014.39 1013.78 1013.97 1014.34
1018.67 1018.53 1018.43 1018.45 1018.38 1018.24 1018.09 1017.95 1017.88 1017.70 1017.66 1017.60 1017.50 1016.23 1016.24 1016.41 1014.07 1012.27 1011.13 1010.50 1010.32 1010.14 1011.00 1012.22 1012.90 1013.52 1014.17 1015.54 1016.80 1017.38 1017.94 1018.20 1018.22 1017.91 1017.33 1017.65 1017.13 1017.14 1017.28 1016.69 1015.45 1015.06 1014.74 1014.30 1014.65 1014.57 1015.13
Wind_Speed
15 16 15 13 13 13 13 13 13 12 12 12 12 12 12 12 12 12 11 11 11 10 9 9 9 10 4 2 8 3 7 12 6 6 5 5 4 3 2 2 6 3 8 7 3 7 6
13 13 13 12 12 14 14 14 14 13 13 13 12 12 12 13 13 13 13 11 11 10 9 7 7 8 2 2 3 5 8 8 4 4 5 5 6 3 3 5 2 6 6 4 0 4 9
14 13 13 14 13 14 15 15 15 15 14 14 13 13 13 13 13 14 14 13 11 10 7 6 5 3 1 10 4 6 8 5 2 5 4 2 3 4 3 1 4 14 7 7 6 3 6
13 14 14 14 15 15 15 15 16 16 15 14 15 14 14 14 14 15 15 15 13 8 5 3 2 1 7 4 2 3 4 2 3 2 2 4 3 1 2 4 5 3 6 3 7 8 6
15 14 14 14 15 16 15 15 16 16 15 14 14 14 15 15 15 16 16 18 12 6 2 3 1 1 9 2 2 6 7 2 4 3 2 5 4 5 1 4 4 6 6 4 2 6 6
16 16 16 16 14 15 15 15 15 14 15 14 14 14 15 15 16 17 21 13 7 5 2 4 4 3 4 4 3 4 4 5 2 4 1 2 2 3 3 5 2 4 7 4 3 3 3
17 17 17 17 15 13 13 13 14 14 15 15 15 15 16 17 16 16 10 1 5 3 1 6 4 3 7 6 2 3 6 5 2 5 3 1 1 4 5 4 1 5 9 6 2 6 1
16 16 14 15 15 15 15 15 15 15 15 15 15 16 17 17 16 13 2 4 4 2 9 8 6 6 7 1 3 2 5 4 4 5 0 5 4 5 2 6 11 8 10 6 3 2 2
17 16 15 16 16 16 16 16 16 15 15 15 15 14 16 17 16 1 1 5 2 4 2 8 5 4 5 6 3 2 7 3 3 4 2 4 4 7 5 10 9 2 5 8 6 4 2
16 15 15 16 16 16 16 16 16 17 18 17 16 15 17 19 2 2 5 2 5 5 6 7 4 5 2 3 2 5 6 4 3 8 4 4 5 6 9 5 6 5 1 7 12 5 2
16 16 15 15 16 16 16 16 17 19 19 18 16 15 12 7 3 1 4 7 5 4 5 3 3 0 3 5 1 3 3 4 4 3 4 8 2 4 6 11 6 3 11 9 4 4 1
16 17 17 16 16 17 17 17 18 20 21 20 16 12 9 1 1 7 9 7 4 7 3 6 3 0 2 2 2 2 3 4 2 2 1 9 5 7 7 4 7 14 11 5 3 4 3
17 17 17 17 17 17 17 18 19 21 23 22 16 9 4 2 3 4 6 5 6 5 5 6 3 1 1 3 2 3 4 2 3 3 3 5 3 4 14 15 5 6 4 3 4 3 4
16 17 17 18 17 17 18 20 21 23 23 23 19 4 8 6 1 6 4 6 8 3 4 5 4 3 4 7 4 2 3 1 1 3 1 1 4 5 8 7 12 9 5 7 3 2 3
16 16 17 18 18 18 19 21 22 24 25 24 11 1 2 4 7 2 7 6 5 4 3 4 5 7 5 4 1 3 1 4 1 4 6 3 5 5 6 3 13 6 4 2 8 2 0
15 16 17 18 18 19 20 21 23 26 28 21 2 3 4 4 6 6 6 3 4 5 3 4 3 3 2 5 7 5 2 3 3 2 3 2 1 4 2 7 7 6 7 3 2 4 4
15 16 17 17 18 19 20 21 22 25 29 13 3 5 3 5 4 6 3 6 5 4 3 4 2 4 1 3 2 3 3 3 4 6 5 1 3 4 2 2 8 2 2 4 5 5 5
14 15 16 17 17 19 20 21 22 21 27 9 2 3 3 1 5 1 2 6 6 2 4 5 4 3 4 4 5 5 3 4 7 1 3 3 4 1 4 5 4 7 3 4 6 3 1
13 15 18 18 18 18 19 20 21 19 14 3 2 3 4 4 1 3 6 5 3 2 1 2 5 4 2 4 3 3 5 7 6 1 0 2 3 3 9 9 6 6 2 0 4 3 3
12 15 17 17 18 19 19 19 20 20 17 3 2 4 6 5 1 3 3 4 3 3 5 6 2 5 4 7 5 4 6 4 8 5 5 7 2 6 7 6 3 4 5 2 5 5 2
11 13 15 15 17 18 19 19 20 20 19 2 2 3 3 3 5 5 2 3 3 3 3 4 5 4 4 4 4 5 4 7 5 8 5 5 2 1 4 7 2 2 3 7 6 3 3
10 10 14 15 16 16 16 19 19 20 14 2 1 2 5 3 4 5 5 1 4 3 3 1 5 3 3 5 5 3 0 0 1 6 4 6 0 5 5 7 6 4 5 8 5 3 6
11 9 12 13 16 14 16 16 16 17 11 3 3 3 3 3 4 3 2 4 6 7 1 6 6 5 3 3 4 2 5 5 3 1 2 3 3 3 3 3 4 6 6 6 2 6 4
13 10 10 10 14 13 13 14 13 12 7 1 3 1 2 4 1 3 4 3 5 4 6 2 5 5 6 4 9 7 7 7 8 8 2 3 3 3 3 5 4 2 4 10 8 5 5
15 11 11 10 10 13 12 13 12 10 7 0 2 1 1 3 3 5 7 2 2 3 1 1 3 4 4 6 5 5 5 4 6 4 7 4 4 3 4 1 4 2 1 3 2 2 3
16 12 11 10 11 12 12 11 10 10 8 1 3 3 1 0 4 3 3 1 3 1 3 3 4 3 8 4 5 3 2 1 4 8 3 4 6 4 2 5 7 4 4 2 3 1 3
15 12 10 9 10 12 12 11 10 9 8 1 4 3 2 2 5 3 1 2 3 3 2 4 5 4 4 3 4 3 3 2 2 1 3 4 4 3 2 2 5 6 5 1 5 7 3
13 12 10 9 10 11 12 10 11 9 8 2 5 3 2 2 7 4 1 2 2 3 4 4 5 5 4 4 4 3 3 5 1 3 3 4 4 3 1 3 6 3 2 6 5 4 4
13 12 9 8 9 11 11 10 11 8 6 1 3 2 1 3 7 3 8 12 8 7 7 1 6 4 5 5 1 3 2 2 3 3 2 3 6 4 8 7 4 3 2 2 4 4 3
Wind_Direction
20 18 16 17 15 12 1 359 358 354 352 350 345 344 343 338 338 334 331 330 322 317 316 319 322 326 348 326 254 328 106 162 128 138 172 145 129 140 277 232 108 153 164 177 140 330 311
22 17 15 14 14 9 4 2 359 357 356 350 347 342 338 335 334 333 327 324 316 307 307 311 318 321 2 300 286 122 107 133 168 146 172 143 169 204 273 228 148 167 119 163 137 303 296
18 13 14 14 12 8 3 0 358 357 357 352 347 341 336 333 330 327 321 316 312 306 304 304 312 304 24 231 39 128 131 175 213 168 141 199 137 59 348 15 153 122 124 154 124 11 293
16 15 10 10 8 4 0 358 353 354 350 347 342 340 333 330 327 322 316 309 303 289 279 262 266 299 250 243 261 228 176 239 210 189 21 203 172 272 206 109 86 81 53 21 35 333 238
14 14 7 7 4 1 358 356 352 346 340 339 335 334 329 327 327 325 321 311 289 254 233 153 108 100 279 298 191 212 160 195 129 120 227 263 162 199 169 97 55 26 112 69 7 321 285
12 11 9 4 1 359 357 354 350 335 336 335 331 329 328 330 335 333 326 319 99 128 170 190 248 334 276 322 232 154 179 137 131 114 101 136 72 90 40 79 216 156 124 128 176 296 238
11 10 8 6 359 354 351 344 338 339 334 330 327 328 333 332 331 336 349 33 14 8 110 223 220 254 283 289 203 154 157 141 100 52 134 218 121 193 211 176 87 113 105 116 185 254 271
12 9 360 3 354 352 349 344 337 335 330 324 324 332 330 328 325 329 303 92 215 160 314 231 234 269 262 154 299 129 110 132 112 199 225 24 255 217 205 147 123 124 126 132 200 226 231
8 5 4 358 352 350 347 342 334 326 321 320 317 314 327 326 318 359 256 227 218 332 145 299 199 205 224 140 210 242 129 168 143 142 158 146 249 140 147 131 128 209 159 180 139 126 339
356 354 354 352 349 348 344 337 330 323 319 316 314 320 327 325 312 320 264 252 299 185 57 290 295 281 131 111 307 212 179 133 43 195 158 234 253 164 144 173 155 174 231 132 127 128 243
357 352 351 350 347 345 341 336 329 324 318 315 314 326 329 339 290 180 302 301 273 61 53 289 271 145 78 136 262 228 167 55 178 215 104 253 267 160 185 210 139 181 108 112 136 98 200
356 352 351 349 346 344 338 335 331 324 319 316 315 320 327 96 207 244 290 300 67 43 21 331 325 73 30 226 252 74 115 47 174 224 277 240 233 170 210 144 124 125 101 54 108 70 325
355 352 350 347 345 342 338 335 333 328 323 321 317 281 256 310 241 298 312 39 44 85 347 310 294 250 107 295 44 126 136 149 172 37 345 317 354 67 103 90 49 127 113 51 39 347 238
353 351 349 346 345 343 341 338 337 331 328 326 324 256 221 227 325 359 46 52 65 272 273 300 343 60 31 19 341 125 99 269 150 123 181 88 354 190 191 156 173 171 142 139 112 271 263
350 348 349 347 346 346 344 341 340 335 333 333 322 29 246 277 192 151 63 51 199 231 239 348 9 56 353 340 76 73 169 192 230 185 171 149 293 298 184 129 133 230 207 192 117 333 243
346 348 347 347 345 347 347 343 342 339 335 339 22 4 276 153 163 64 70 244 261 238 6 48 100 172 64 324 23 34 19 296 333 204 183 209 158 271 112 91 285 179 166 77 21 154 232
343 347 345 345 345 344 348 345 344 343 337 337 39 28 269 214 84 49 119 237 276 302 79 76 216 19 349 36 356 40 291 287 22 334 86 137 119 263 109 176 189 189 228 57 121 143 169
342 346 349 346 347 345 347 345 345 347 341 32 40 25 294 45 47 58 208 198 257 7 10 34 96 71 51 17 55 31 328 335 358 337 19 349 128 28 245 300 311 128 107 143 127 216 198
340 350 351 352 351 348 347 346 343 346 20 338 71 260 281 124 122 299 294 278 254 91 7 43 44 42 56 55 63 42 342 300 4 99 73 334 8 27 349 1 351 40 343 284 111 63 188
334 342 349 351 351 352 347 345 342 340 344 129 55 10 322 42 114 201 292 258 166 36 67 73 75 73 58 20 17 27 342 331 346 9 27 88 85 146 165 213 251 352 323 52 107 98 201
322 333 341 348 348 350 352 345 342 340 348 108 46 261 197 314 319 344 219 300 107 103 66 47 34 74 121 40 24 9 336 330 342 6 8 72 76 259 231 215 233 227 86 48 65 315 124
304 326 332 340 345 347 349 350 343 344 349 51 54 27 355 279 315 324 355 262 141 132 110 65 121 137 104 139 160 242 100 342 288 332 42 0 192 1 339 330 72 78 38 78 52 49 79
292 303 324 332 339 343 347 350 344 352 0 27 322 325 114 267 330 40 275 281 231 130 265 156 161 121 131 210 205 179 108 79 73 118 60 63 86 59 276 358 129 331 359 62 76 23 141
294 286 301 317 329 337 340 344 346 354 45 166 261 52 32 274 316 277 301 243 167 167 139 171 131 125 232 93 89 57 60 75 52 30 21 112 92 71 259 343 184 101 343 75 87 57 49
294 279 286 300 316 326 334 336 339 336 353 105 272 122 137 281 251 300 330 323 35 2 4 186 197 184 105 58 61 56 343 5 3 28 17 37 122 87 131 108 332 275 44 88 283 306 4
294 282 271 289 301 316 323 325 329 322 328 236 245 196 139 102 254 278 297 354 194 316 4 317 23 125 67 77 67 97 237 287 317 336 53 71 76 114 137 149 199 224 212 206 236 105 311
291 282 266 279 296 307 314 317 319 318 318 301 278 234 142 215 269 312 301 236 140 111 117 312 348 46 64 74 85 147 229 205 237 242 334 8 6 147 180 227 282 216 212 247 129 224 247
281 279 259 270 288 301 308 306 307 305 313 24 268 224 165 251 278 251 307 2 347 92 130 258 38 351 50 73 121 202 165 218 143 239 191 178 150 218 60 46 280 1 191 175 216 155 160
282 274 252 266 284 290 297 296 299 295 297 81 278 310 73 185 249 281 255 242 209 201 137 24 173 180 184 92 133 113 169 122 168 250 20 272 184 189 169 214 240 282 272 24 358 112 138